Regional Weather Roundup
Issued by NWS

Home | Current Version | Previous Version | Text Only | Print | Product List | Glossary Off
Versions: 1 2 3 4 5 6 7 8 9 10 11 12 13 14 15 16 17 18 19 20 21 22 23 24 25 26 27 28 29 30 31 32 33 34 35 36 37 38 39 40 41 42 43 44 45 46 47 48 49 50

000
ASUS45 KPSR 261610
RWRAZ

ARIZONA REGIONAL HOURLY WEATHER ROUNDUP
NATIONAL WEATHER SERVICE PHOENIX AZ
900 AM MST SAT JUL 26 2014

NOTE: FAIR INDICATES FEW OR NO CLOUDS BELOW 12,000 FEET WITH NO
SIGNIFICANT WEATHER AND/OR OBSTRUCTIONS TO VISIBILITY.

AZZ001>003-036-261700-
NORTHWEST ARIZONA

CITY           SKY/WX    TMP DP  RH WIND       PRES   REMARKS
BULLHEAD CITY  SUNNY     91  63  38 S7        29.94S
KINGMAN        SUNNY     83  61  47 E10       30.14R
$$

AZZ004>008-015-016-018-261700-
NORTH CENTRAL ARIZONA

CITY           SKY/WX    TMP DP  RH WIND       PRES   REMARKS
GRAND CANYON   PTSUNNY   73  48  41 VRB6      30.38R
WILLIAMS       SUNNY     73  48  40 W8        30.44R
PRESCOTT       SUNNY     77  57  50 N3        30.26R
FLAGSTAFF      SUNNY     76  46  34 VRB6      30.39R
PAYSON         SUNNY     81  54  39 VRB5      30.26S
PAGE           CLOUDY    85  50  29 CALM      30.17R
$$

AZZ009>014-017-261700-
NORTHEAST ARIZONA

CITY           SKY/WX    TMP DP  RH WIND       PRES   REMARKS
WINSLOW        SUNNY     82  53  36 SE7       30.22F
SAINT JOHNS    SUNNY     80  49  33 VRB5      30.27F
WINDOW ROCK    SUNNY     82  46  28 N7        30.34F
SHOW LOW       SUNNY     77  45  31 NE7       30.35S
$$

AZZ023-261700-
GREATER PHOENIX AREA

CITY           SKY/WX    TMP DP  RH WIND       PRES   REMARKS
PHOENIX        SUNNY     91  62  37 CALM      29.96S
BUCKEYE          N/A     90  64  43 SE5       29.97S
GLENDALE       MOSUNNY   91  64  40 CALM      29.99R
LUKE AFB       NOT AVBL
DEER VALLEY    SUNNY     88  61  40 CALM      29.99R
SCOTTSDALE     SUNNY     88  62  41 VRB3      30.01R
MESA-FALCON    SUNNY     88  61  40 E5        29.99R
MESA-GATEWAY   SUNNY     88  63  42 SE8       30.00R
CHANDLER       SUNNY     88  63  42 CALM      29.98S
$$

AZZ027-028-261700-
SOUTHWEST MARICOPA COUNTY AND PINAL COUNTY

CITY           SKY/WX    TMP DP  RH WIND       PRES   REMARKS
CASA GRANDE    SUNNY     86  63  45 S3        30.00R
$$

AZZ503-504-507>509-261700-
SOUTHEAST ARIZONA

CITY           SKY/WX    TMP DP  RH WIND       PRES   REMARKS
TUCSON         SUNNY     85  59  41 CALM      30.09S
DAVIS-MONTHAN  SUNNY     84  60  43 NW1       30.07S
RYAN FIELD       N/A     82  64  54 CALM      30.07F
NOGALES        SUNNY     79  62  56 VRB3      30.17S
SIERRA VISTA   SUNNY     82  56  40 W12       30.22R
DOUGLAS        SUNNY     79  61  53 S3        30.17S
SAFFORD        SUNNY     87  60  40 W7        30.04S
$$

AZZ020-021-025-026-031-261700-
SOUTHWEST ARIZONA

CITY           SKY/WX    TMP DP  RH WIND       PRES   REMARKS
YUMA           MOSUNNY   98  62  30 S15       29.89R
$$

CAZ031-033-041-043-047-048-061-261700-
SOUTHERN CALIFORNIA

CITY           SKY/WX    TMP DP  RH WIND       PRES   REMARKS
DOWNTOWN L.A.  SUNNY     73  64  73 CALM      29.97R
L.A. AIRPORT   PTSUNNY   68  64  88 SW3       29.99R FOG
SAN DIEGO      CLOUDY    71  64  78 S7        30.00R
BURBANK        SUNNY     77  60  55 SE6       29.98R
ONTARIO        PTSUNNY   80  61  52 CALM      29.98R
RIVERSIDE      MOSUNNY   79  62  56 VRB5      29.98R
PALM SPRINGS   MOSUNNY   92  57  30 CALM      29.93R
EL CENTRO NAS  PTSUNNY   92  73  53 SE6       29.87R HX 100
IMPERIAL       PTSUNNY   93  72  50 E8        29.86R HX 101
BLYTHE         SUNNY     96  63  33 S5        29.90R
NEEDLES        SUNNY     97  61  30 S9        29.94S
$$

NVZ020-UTZ003-261700-
SOUTHERN NEVADA-UTAH

CITY           SKY/WX    TMP DP  RH WIND       PRES   REMARKS
LAS VEGAS      MOSUNNY   94  55  26 VRB3      29.95R
SALT LAKE CITY MOSUNNY   81  44  27 NW6       30.14R
$$

NMZ009-TXZ055-261700-
NEW MEXICO-WEST TEXAS

CITY           SKY/WX    TMP DP  RH WIND       PRES   REMARKS
ALBUQUERQUE    SUNNY     81  47  30 CALM      30.21S
EL PASO        SUNNY     84  51  31 SE10      30.08S
$$


........................KEY........................
SKY/WX - SKY CONDITION/WEATHER
TMP    - TEMPERATURE IN FAHRENHEIT
DP     - DEW POINT IN FAHRENHEIT
RH     - RELATIVE HUMIDITY IN PERCENT
WIND   - DIRECTION AND SPEED IN MILES PER HOUR (MPH)
VRB    - VARIABLE WIND DIRECTION
PRES   - MEAN SEA LEVEL PRESSURE IN INCHES OF MERCURY
         F - FALLING PRESSURE   R - RISING PRESSURE
         S - STEADY PRESSURE
VSB    - VISIBILITY IN MILES
HX     - HEAT INDEX IN FAHRENHEIT
WCI    - WIND CHILL INDEX IN FAHRENHEIT
TC     - TEMPERATURE IN CELSIUS WHICH IS ALSO KNOWN AS
         TEMPERATURE IN CENTIGRADE
AFB    - AIR FORCE BASE
         LUKE AFB IS LUKE AIR FORCE BASE
         DAVIS-MONTHAN IS DAVIS-MONTHAN AIR FORCE BASE
NAS    - NAVAL AIR STATION
         EL CENTRO NAS IS EL CENTRO NAVAL AIR STATION
N/A    - NOT AVAILABLE



USA.gov is the U.S. government's official web portal to all federal, state and local government web resources and services.